Spencer, IA

12:09 AM CST on January 20, 2017 (GMT -0600)
Spencer Municipal

Weather History for KSPW - October, 2012

Change the Weather History Date:

Monday, October 8, 2012

  Actual Average Record
Temperature  
Mean Temperature 58 °F -  
Max Temperature 73 °F 62 °F 91 °F (2010)
Min Temperature 42 °F 40 °F 14 °F (2000)
Degree Days  
Heating Degree Days 8    
Growing Degree Days 8 (Base 50)    
Moisture  
Dew Point 32 °F    
Average Humidity 47    
Maximum Humidity 89    
Minimum Humidity 16    
Precipitation  
Precipitation 0.03 in - - ()
Sea Level Pressure  
Sea Level Pressure 29.80 in    
Wind  
Wind Speed 16 mph (SW)    
Max Wind Speed 31 mph    
Max Gust Speed 37 mph    
Visibility 10 miles    
Events Rain    
Averages and records for this station are not official NWS values.
T = Trace of Precipitation, MM = Missing Value Source: NWS Daily Summary

Daily Weather History Graph

Daily Weather History Graph

Search for Another Location

Airport or City:

Trip Planner

Search our weather history database for the weather conditions in past years. The results will help you decide how hot, cold, wet, or windy it might be!

Date:

Astronomy

Oct. 08, 2012 Rise Set
Actual Time 7:26 AM CDT 6:48 PM CDT
Civil Twilight 6:58 AM CDT 7:17 PM CDT
Nautical Twilight 6:25 AM CDT 7:50 PM CDT
Astronomical Twilight 5:52 AM CDT 8:23 PM CDT
Moon No Moon Rise 2:48 PM CDT (10/8)
Length of Visible Light 12h 18m
Length of Day
11h 21m
Last Quarter, 46% of the Moon is Illuminated
Oct 8
Last Quarter
Oct 15
New
Oct 21
First Quarter
Oct 29
Full
Nov 6
Last Quarter

Hourly Weather History & Observations

Time (CDT) Temp. Windchill Dew Point Humidity Pressure Visibility Wind Dir Wind Speed Gust Speed Precip Events Conditions
12:53 AM 43.0 °F 35.4 °F 25.0 °F 49% 29.91 in 10.0 mi SSW 16.1 mph - N/A   Clear
1:53 AM 42.1 °F 35.2 °F 25.0 °F 51% 29.91 in 10.0 mi SW 12.7 mph - N/A   Clear
2:53 AM 42.1 °F 35.2 °F 27.0 °F 55% 29.90 in 10.0 mi SW 12.7 mph - N/A   Clear
3:53 AM 42.1 °F 35.2 °F 28.0 °F 58% 29.88 in 10.0 mi SW 12.7 mph - N/A   Clear
4:53 AM 43.0 °F 36.0 °F 30.0 °F 60% 29.87 in 10.0 mi SW 13.8 mph 20.7 mph N/A   Clear
5:53 AM 44.1 °F 37.7 °F 30.0 °F 58% 29.86 in 10.0 mi SW 12.7 mph - N/A   Mostly Cloudy
6:53 AM 44.1 °F 37.7 °F 30.9 °F 60% 29.86 in 10.0 mi SW 12.7 mph - N/A   Overcast
7:53 AM 44.1 °F 36.5 °F 30.9 °F 60% 29.85 in 10.0 mi SSW 17.3 mph - N/A   Overcast
8:53 AM 45.0 °F 37.6 °F 30.9 °F 58% 29.84 in 10.0 mi SSW 17.3 mph - N/A   Clear
9:53 AM 48.9 °F - 32.0 °F 52% 29.83 in 10.0 mi SSW 16.1 mph - N/A   Clear
10:53 AM 55.0 °F - 30.9 °F 40% 29.79 in 10.0 mi SSW 18.4 mph 24.2 mph N/A   Clear
11:53 AM 61.0 °F - 30.0 °F 31% 29.77 in 10.0 mi SSW 20.7 mph 26.5 mph N/A   Clear
12:53 PM 64.0 °F - 28.0 °F 26% 29.74 in 10.0 mi SSW 23.0 mph 32.2 mph N/A   Partly Cloudy
1:53 PM 66.9 °F - 27.0 °F 22% 29.71 in 10.0 mi SSW 26.5 mph 32.2 mph N/A   Partly Cloudy
2:53 PM 71.1 °F - 26.1 °F 19% 29.69 in 10.0 mi SW 28.8 mph 36.8 mph N/A   Clear
3:53 PM 73.0 °F - 24.1 °F 16% 29.68 in 10.0 mi SW 31.1 mph 35.7 mph N/A   Clear
4:53 PM 73.0 °F - 24.1 °F 16% 29.68 in 10.0 mi WSW 25.3 mph 36.8 mph N/A   Clear
5:53 PM 69.1 °F - 32.0 °F 25% 29.70 in 9.0 mi West 18.4 mph - N/A   Partly Cloudy
6:53 PM 66.9 °F - 36.0 °F 32% 29.71 in 8.0 mi WNW 13.8 mph - N/A   Overcast
7:53 PM 64.0 °F - 39.0 °F 40% 29.75 in 9.0 mi WNW 10.4 mph - N/A   Overcast
9:53 PM 53.1 °F - 46.9 °F 80% 29.83 in 10.0 mi NW 4.6 mph - 0.01 in Rain Light Rain
10:53 PM 52.0 °F - 48.0 °F 86% 29.83 in 10.0 mi SSW 5.8 mph - 0.01 in Rain Light Rain
11:53 PM 50.0 °F - 46.9 °F 89% 29.80 in 10.0 mi South 5.8 mph - 0.01 in   Mostly Cloudy